TimeCDT,TemperatureF,Dew PointF,Humidity,Sea Level PressureIn,VisibilityMPH,Wind Direction,Wind SpeedMPH,Gust SpeedMPH,PrecipitationIn,Events,Conditions,WindDirDegrees,DateUTC
12:53 AM,34.0,24.1,67,30.25,10.0,Calm,Calm,-,N/A,,Partly Cloudy,0,2012-10-07 05:53:00
1:53 AM,34.0,24.1,67,30.24,10.0,Calm,Calm,-,N/A,,Clear,0,2012-10-07 06:53:00
2:53 AM,32.0,24.1,73,30.24,10.0,SW,3.5,-,N/A,,Clear,220,2012-10-07 07:53:00
3:53 AM,30.0,24.1,79,30.22,10.0,SSW,3.5,-,N/A,,Clear,200,2012-10-07 08:53:00
4:53 AM,28.9,23.0,78,30.22,10.0,SSW,3.5,-,N/A,,Clear,200,2012-10-07 09:53:00
5:53 AM,28.9,23.0,78,30.21,10.0,SSW,3.5,-,N/A,,Partly Cloudy,200,2012-10-07 10:53:00
6:53 AM,28.9,21.9,75,30.21,10.0,SW,4.6,-,N/A,,Partly Cloudy,230,2012-10-07 11:53:00
7:53 AM,28.0,21.9,78,30.20,10.0,Calm,Calm,-,N/A,,Partly Cloudy,0,2012-10-07 12:53:00
8:53 AM,32.0,21.9,66,30.19,10.0,SW,8.1,-,N/A,,Partly Cloudy,220,2012-10-07 13:53:00
9:53 AM,37.0,21.9,54,30.18,10.0,SW,12.7,-,N/A,,Partly Cloudy,230,2012-10-07 14:53:00
10:53 AM,41.0,21.9,47,30.17,10.0,SW,10.4,-,N/A,,Partly Cloudy,230,2012-10-07 15:53:00
11:53 AM,45.0,19.9,37,30.14,10.0,SW,12.7,-,N/A,,Partly Cloudy,230,2012-10-07 16:53:00
12:53 PM,46.9,18.0,32,30.12,10.0,SW,9.2,21.9,N/A,,Scattered Clouds,230,2012-10-07 17:53:00
1:53 PM,48.0,17.1,29,30.09,10.0,SSW,9.2,21.9,N/A,,Scattered Clouds,200,2012-10-07 18:53:00
2:53 PM,50.0,17.1,27,30.05,10.0,SW,10.4,18.4,N/A,,Scattered Clouds,220,2012-10-07 19:53:00
3:53 PM,52.0,15.1,23,30.02,10.0,SW,17.3,24.2,N/A,,Scattered Clouds,220,2012-10-07 20:53:00
4:53 PM,52.0,14.0,22,30.00,10.0,SW,15.0,19.6,N/A,,Scattered Clouds,220,2012-10-07 21:53:00
5:53 PM,52.0,15.1,23,29.98,10.0,SW,6.9,-,N/A,,Scattered Clouds,220,2012-10-07 22:53:00
6:53 PM,50.0,18.0,28,29.96,10.0,South,5.8,-,N/A,,Partly Cloudy,170,2012-10-07 23:53:00
7:53 PM,46.0,19.0,34,29.96,10.0,SSE,6.9,-,N/A,,Clear,150,2012-10-08 00:53:00
8:53 PM,46.9,19.9,34,29.95,10.0,SSE,8.1,-,N/A,,Clear,160,2012-10-08 01:53:00
9:53 PM,46.0,21.9,39,29.94,10.0,South,6.9,-,N/A,,Clear,170,2012-10-08 02:53:00
10:53 PM,46.0,23.0,40,29.93,10.0,South,6.9,-,N/A,,Clear,170,2012-10-08 03:53:00
11:53 PM,42.1,23.0,47,29.91,10.0,SE,5.8,-,N/A,,Clear,130,2012-10-08 04:53:00